Theta_e
323 323 321 321 323 323 322 321 324 323 323 320 321 322 322 322 321 321 320 319 319 318
319 321 319 323 321 321 325 322 318 322 319 320 322 321 323 319 320 321 321 321 320 319
321 322 325 324 321 318 322 321 322 324 320 319 321 323 322 318 320 321 321 320 319 318
322 319 322 323 322 321 318 318 320 321 322 321 317 322 322 320 319 317 318 319 319 319
321 321 321 321 321 322 320 322 316 319 319 320 318 319 318 319 317 318 317 317 319 319
320 321 320 320 321 321 320 319 319 319 317 319 320 317 320 319 316 317 317 316 318 319
318 318 319 319 320 317 314 314 316 317 318 316 317 316 317 314 320 316 318 316 318 317
318 319 318 319 319 317 315 316 316 316 317 317 317 316 319 319 318 315 314 315 319 318
316 317 316 317 314 313 314 316 317 317 318 316 318 307 311 318 318 319 316 316 316 319
313 316 316 316 314 313 314 316 316 317 319 317 313 307 308 310 319 319 318 318 315 314
313 314 315 314 313 313 316 314 316 319 316 318 316 305 306 307 319 319 319 318 317 313
312 313 313 313 311 312 314 315 319 317 319 317 311 304 304 307 316 318 317 314 319 319
312 312 312 313 313 314 313 315 316 318 320 317 315 302 301 306 315 315 314 319 315 311
312 312 313 313 314 314 316 317 316 315 320 318 317 315 301 301 315 314 316 314 315 314
Wind_Speed
3 4 4 8 3 4 2 3 5 4 4 6 4 3 5 5 4 4 4 6 5 4
7 6 8 3 3 6 3 4 7 5 4 6 5 4 4 6 4 4 4 6 5 5
4 6 6 5 4 7 3 7 7 3 5 6 5 5 4 6 4 5 5 4 5 6
5 6 9 5 6 6 4 10 8 7 7 7 4 6 5 6 4 6 5 4 5 6
8 10 9 7 7 7 8 5 5 9 7 7 4 6 5 3 4 4 5 5 4 5
9 8 9 9 7 6 6 8 7 8 7 8 5 7 4 2 4 4 4 5 2 3
10 11 11 9 6 5 4 5 14 10 9 1 7 6 6 1 3 4 5 4 3 4
8 10 11 7 5 5 5 8 14 6 8 2 7 7 7 4 4 3 7 4 3 3
8 8 9 6 3 6 10 11 10 8 7 8 7 7 9 5 4 2 7 4 5 3
11 11 11 6 6 8 11 11 7 6 4 7 5 10 8 7 3 1 4 2 4 4
10 12 11 4 7 6 8 5 9 6 7 9 8 12 9 7 3 3 5 3 5 5
12 13 11 5 4 6 9 9 4 4 9 6 5 12 11 7 5 5 5 6 5 5
7 11 12 10 6 6 6 9 6 8 10 6 7 9 13 9 4 4 4 4 4 7
10 8 10 9 8 6 6 7 7 6 3 1 4 9 13 13 6 4 4 3 4 4
Wind_Direction
91 353 281 250 267 299 336 294 246 271 257 262 272 269 279 265 259 291 256 273 266 252
236 211 259 319 26 312 320 285 283 254 268 301 250 258 260 287 292 292 273 257 255 255
238 261 277 263 223 230 281 283 271 303 294 282 274 249 272 288 320 312 305 302 265 267
315 279 260 253 229 227 208 247 260 263 249 253 282 242 257 265 311 302 286 280 240 285
346 328 303 279 266 263 264 267 229 274 268 267 243 253 256 293 317 322 332 317 7 0
333 318 297 279 275 274 304 301 279 258 224 253 243 250 181 68 326 335 338 316 48 45
324 323 305 274 253 267 277 300 292 267 260 130 272 290 125 121 293 353 345 342 51 31
320 316 320 304 255 269 280 256 266 251 279 318 248 243 150 193 155 227 310 319 16 83
329 328 311 289 244 261 276 271 268 260 188 182 249 137 130 130 113 226 225 297 32 330
332 338 333 319 258 256 262 275 286 262 268 267 168 155 154 144 201 265 303 305 83 10
354 342 339 340 333 323 307 292 278 240 202 252 173 165 168 177 196 226 267 257 173 183
352 335 332 325 299 298 310 320 300 299 276 215 161 165 165 171 215 216 240 254 233 178
349 338 328 323 273 269 292 293 293 246 263 189 163 194 175 177 241 186 224 272 188 134
336 336 333 340 319 295 270 278 286 316 290 316 309 201 198 188 216 239 205 239 221 169